Find Starlink 31351

NORAD ID: 58972 Int'l Des: 2024-031 Owner: SPXS Country: US Constellation: starlink operational
LEOCIRCULAR

Current View

Loading 3D Globe...

About Starlink 31351

Starlink 31351 (NORAD 58972) is a starlink constellation satellite (v2 mini) launched Feb 15, 2024 by SPXS of US. It operates in LEO, CIRCULAR orbit with a mass of 730.00 kg.

About Starlink 31351

Description loading...

Upcoming Passes

Passes for default location (London). Set your location on the main map for personalized predictions.

Altitude History

Loading altitude history...

Two-Line Element Set

1 58972U 24031H 26171.29564436 .00000623 00000-0 33145-4 0 9998
2 58972 53.1597 180.0244 0001146 78.2735 281.8394 15.30197360132237
Epoch: Jun 20, 2026 • Age: 19 hours

Current Status

Altitude 480.8 km
Velocity 7.63 km/s
Sub-Earth Point 52.30°N, 52.26°W
Launch Date Feb 15, 2024
Age 2.3 years
Type internet

Technical Details

Classification Payload
Mass 730.00 kg
Dry Mass 700.00 kg
Total Mass 730.00 kg
Length 0.30 m
Diameter 4.10 m
Span 29.00 m
Shape Box + pan
Manufacturer SPXS
Bus Type Starlink V2M
Phase Status In Orbit
Owner/State SPXS/US

Most Searched